CW2553 Weather Reports


time (UTC)temp
F
wind
direction
speed
knots
gust
knots
rain 1hr
in
rain 24hr
in
rain mn
in
humidity
%
barometer
mb
20260506025027 60 305 0.0 0.0 0.00 0.01 0.01 83 1013.6
20260506024524 61 305 0.9 0.9 0.00 0.01 0.01 81 1013.5
20260506024020 60 317 0.0 0.0 0.00 0.01 0.01 81 1013.7
20260506023516 61 318 0.0 0.0 0.00 0.01 0.01 81 1013.3
20260506023014 61 318 0.0 0.0 0.00 0.01 0.01 80 1013.4
20260506022511 62 317 0.0 0.9 0.00 0.01 0.01 79 1013.3
20260506022009 62 294 0.0 0.0 0.00 0.01 0.01 78 1013.5
20260506021506 63 293 0.0 0.9 0.00 0.01 0.01 77 1013.5
20260506021003 63 4 0.0 0.0 0.00 0.01 0.01 77 1013.6
20260506020501 63 319 0.0 0.0 0.00 0.01 0.01 78 1013.4
20260506015957 64 297 0.9 0.9 0.00 0.01 0.01 77 1013.4
20260506015455 64 296 0.0 0.0 0.00 0.01 0.01 76 1013.4
20260506014952 64 278 0.9 1.7 0.00 0.01 0.01 75 1013.5
20260506014449 64 324 0.0 0.0 0.00 0.01 0.01 77 1013.4
20260506013945 63 354 1.7 1.7 0.00 0.01 0.01 77 1013.5
20260506013443 63 321 0.0 0.0 0.00 0.01 0.01 77 1013.1
20260506012939 64 313 0.9 0.9 0.00 0.01 0.01 76 1013.3
20260506012436 64 300 0.0 0.9 0.00 0.01 0.01 78 1013.1
20260506011933 64 321 2.6 2.6 0.00 0.01 0.01 75 1013.2
20260506011430 64 325 0.9 0.9 0.00 0.01 0.01 74 1013.2
20260506010927 64 9 0.0 0.0 0.00 0.01 0.01 78 1013.1
20260506010426 64 325 1.7 2.6 0.00 0.01 0.01 76 1012.9
20260506005921 64 324 0.9 0.9 0.00 0.01 0.01 75 1012.9
20260506005420 63 339 1.7 4.3 0.00 0.01 0.01 75 1013.1
20260506004914 64 342 1.7 1.7 0.00 0.01 0.01 75 1012.9
20260506004413 64 9 0.0 0.0 0.00 0.01 0.01 75 1013.1
20260506003909 64 317 0.9 0.9 0.00 0.01 0.01 75 1013.2
20260506003405 64 303 0.9 0.9 0.00 0.01 0.01 75 1013.1
20260506002902 64 324 0.0 0.0 0.00 0.01 0.01 75 1013.2
20260506002357 63 324 0.9 0.9 0.00 0.01 0.01 76 1013.2
20260506001853 64 289 0.9 1.7 0.00 0.01 0.01 74 1013.1
20260506001350 64 297 0.0 0.0 0.00 0.01 0.01 76 1013.2
20260506000847 64 343 0.9 0.9 0.00 0.01 0.01 74 1013.3
20260506000346 64 320 0.0 0.9 0.00 0.01 0.01 74 1013.4
20260505235842 64 286 0.0 0.0 0.00 0.01 0.01 76 1013.0
20260505235339 64 308 0.9 0.9 0.00 0.01 0.01 76 1013.4
20260505234836 63 334 1.7 1.7 0.00 0.01 0.01 76 1013.5
20260505234334 63 317 0.9 0.9 0.00 0.01 0.01 77 1013.4
20260505233831 64 298 0.9 1.7 0.00 0.01 0.01 77 1013.4
20260505233329 64 310 0.9 0.9 0.00 0.01 0.01 75 1013.5
20260505232826 64 320 0.9 0.9 0.00 0.01 0.01 74 1013.5
20260505232323 64 292 0.9 0.9 0.00 0.01 0.01 75 1013.4
20260505231820 64 307 0.9 0.9 0.00 0.01 0.01 75 1013.7
20260505231318 64 322 0.9 0.9 0.00 0.01 0.01 75 1013.5
20260505230816 64 343 1.7 2.6 0.00 0.01 0.01 76 1013.3
20260505230313 64 294 0.9 0.9 0.00 0.01 0.01 75 1013.4
20260505225809 64 301 1.7 1.7 0.00 0.01 0.01 75 1013.4
20260505225306 63 327 2.6 4.3 0.00 0.01 0.01 76 1013.4
20260505224801 64 312 0.0 0.9 0.00 0.01 0.01 75 1013.4
20260505224300 64 298 0.9 1.7 0.00 0.01 0.01 75 1013.6
20260505223757 64 280 1.7 1.7 0.00 0.01 0.01 74 1013.7
20260505223253 64 301 0.9 0.9 0.00 0.01 0.01 74 1013.4
20260505222749 64 331 2.6 4.3 0.00 0.01 0.01 74 1013.6
20260505222246 64 324 2.6 4.3 0.00 0.01 0.01 75 1013.8
20260505221743 64 318 0.9 0.9 0.00 0.01 0.01 75 1013.7
20260505221239 64 296 2.6 2.6 0.00 0.01 0.01 74 1013.6
20260505220736 64 300 1.7 1.7 0.00 0.01 0.01 74 1013.7
20260505220233 64 312 0.9 0.9 0.00 0.01 0.01 76 1013.5
20260505215732 64 297 0.9 0.9 0.00 0.01 0.01 76 1013.8
20260505215229 64 320 0.9 1.7 0.00 0.01 0.01 76 1013.7
20260505214727 64 326 1.7 1.7 0.00 0.01 0.01 74 1013.9
20260505214224 64 350 3.5 5.2 0.00 0.01 0.01 74 1013.8
20260505213721 64 4 0.0 0.9 0.00 0.01 0.01 75 1013.9
20260505213218 65 284 0.9 1.7 0.00 0.01 0.01 73 1013.8
20260505212714 64 293 0.9 1.7 0.00 0.01 0.01 74 1014.0
20260505212211 64 304 0.9 0.9 0.00 0.01 0.01 74 1013.9
20260505211703 64 297 1.7 1.7 0.00 0.01 0.01 72 1013.7
20260505211200 64 298 0.9 0.9 0.00 0.01 0.01 73 1013.7
20260505210656 65 328 0.9 0.9 0.00 0.01 0.01 72 1013.8
20260505210153 66 278 0.9 1.7 0.00 0.01 0.01 70 1013.7
20260505205651 65 301 0.9 0.9 0.00 0.01 0.01 71 1013.8
20260505205149 64 327 0.9 0.9 0.00 0.01 0.01 75 1014.0
20260505204645 64 322 0.9 1.7 0.00 0.01 0.01 74 1013.8
20260505204143 65 27 3.5 4.3 0.00 0.01 0.01 71 1013.7
20260505203640 66 316 1.7 1.7 0.00 0.01 0.01 72 1013.9
20260505203137 66 21 0.0 0.9 0.00 0.01 0.01 74 1013.9
20260505202632 64 269 0.0 0.9 0.00 0.01 0.01 76 1013.9
20260505202128 64 351 2.6 2.6 0.00 0.01 0.01 74 1013.9
20260505201625 65 289 2.6 2.6 0.00 0.01 0.01 72 1013.9
20260505201123 65 310 0.0 0.9 0.00 0.01 0.01 74 1014.0
20260505200621 66 316 0.0 0.9 0.00 0.01 0.01 69 1014.0
20260505200118 66 27 0.0 0.9 0.00 0.01 0.01 72 1014.0
20260505195614 65 2 0.0 0.0 0.00 0.01 0.01 76 1014.2
20260505195111 66 297 0.9 0.9 0.00 0.01 0.01 73 1014.0
20260505194608 66 330 0.0 0.0 0.00 0.01 0.01 74 1014.1
20260505194104 67 198 1.7 1.7 0.00 0.01 0.01 73 1014.3
20260505193601 68 334 0.9 0.9 0.00 0.01 0.01 70 1014.3
20260505193058 66 296 0.9 0.9 0.00 0.01 0.01 72 1014.2
20260505192557 65 161 0.9 0.9 0.00 0.01 0.01 75 1014.3
20260505192054 63 292 0.9 0.9 0.00 0.01 0.01 74 1014.5
20260505191552 64 18 1.7 1.7 0.00 0.01 0.01 76 1014.2
20260505191050 64 59 1.7 2.6 0.00 0.01 0.01 74 1014.3
20260505190544 63 3 3.5 4.3 0.00 0.01 0.01 76 1014.3
20260505190040 64 315 0.0 0.9 0.00 0.01 0.01 77 1014.4
20260505185537 64 335 0.9 1.7 0.00 0.01 0.01 77 1014.4
20260505185034 61 322 0.0 0.0 0.00 0.01 0.01 80 1014.2
20260505184531 62 315 0.9 0.9 0.00 0.01 0.01 80 1014.3
20260505184027 62 6 0.9 0.9 0.00 0.01 0.01 81 1014.4
20260505183524 62 115 1.7 1.7 0.00 0.01 0.01 77 1014.3
20260505183022 60 23 0.9 0.9 0.00 0.01 0.01 81 1014.5
20260505182518 60 297 0.9 1.7 0.00 0.01 0.01 82 1014.5
20260505182015 59 315 1.7 1.7 0.00 0.01 0.01 82 1014.4
20260505181511 60 70 0.9 0.9 0.00 0.01 0.01 84 1014.4
20260505181009 60 84 0.9 1.7 0.00 0.01 0.01 83 1014.5
20260505180504 60 357 0.0 0.0 0.00 0.01 0.01 82 1014.3
20260505180003 60 310 1.7 1.7 0.00 0.01 0.01 83 1014.6
20260505175457 60 324 0.9 0.9 0.00 0.01 0.01 83 1014.3
20260505174954 60 346 0.0 0.0 0.00 0.01 0.01 85 1014.4
20260505174451 59 324 0.9 0.9 0.00 0.01 0.01 85 1014.5
20260505173947 58 16 0.0 0.0 0.00 0.01 0.01 86 1014.3
20260505173444 58 319 0.9 0.9 0.00 0.01 0.01 86 1014.4
20260505172941 59 305 0.9 0.9 0.00 0.01 0.01 83 1014.2
20260505172439 59 340 0.0 0.9 0.00 0.01 0.01 87 1014.2
20260505171938 58 359 0.0 0.9 0.00 0.01 0.01 87 1014.2
20260505171436 58 159 0.9 1.7 0.00 0.01 0.01 89 1014.3
20260505170932 57 307 0.9 0.9 0.00 0.01 0.01 88 1014.1
20260505170429 57 307 0.9 0.9 0.00 0.01 0.01 89 1014.1
20260505165924 56 312 0.9 0.9 0.00 0.01 0.01 89 1014.4
20260505165421 56 359 0.0 0.0 0.00 0.01 0.01 91 1014.4
20260505164916 56 325 0.9 0.9 0.00 0.01 0.01 91 1014.2
20260505164413 56 334 0.9 0.9 0.00 0.01 0.01 91 1014.2
20260505163911 56 359 0.0 0.0 0.00 0.01 0.01 92 1014.4
20260505163410 55 1 0.0 0.0 0.00 0.01 0.01 92 1014.3
20260505162908 54 321 0.0 0.9 0.00 0.01 0.01 93 1014.4
20260505162403 54 324 0.9 1.7 0.00 0.01 0.01 93 1014.3
20260505161901 54 320 0.0 0.0 0.00 0.01 0.01 95 1014.2
20260505161357 54 320 0.0 0.0 0.00 0.01 0.01 94 1014.4
20260505160855 54 324 0.0 0.9 0.00 0.01 0.01 95 1014.2
20260505160353 54 333 0.0 0.9 0.00 0.01 0.01 96 1014.1
20260505153325 53 335 0.0 0.0 0.00 0.01 0.01 96 1014.0
20260505152822 53 335 0.0 0.0 0.00 0.01 0.01 96 1014.2
20260505152319 53 336 0.0 0.0 0.00 0.01 0.01 96 1014.0
20260505151814 53 336 0.0 0.0 0.00 0.01 0.01 97 1014.0
20260505151311 53 337 0.0 0.0 0.00 0.01 0.01 96 1014.1
20260505150808 53 337 0.0 0.0 0.00 0.01 0.01 96 1013.9
20260505150305 53 338 0.0 0.0 0.00 0.01 0.01 97 1013.8
20260505140229 51 331 0.0 0.0 0.05 0.01 0.01 99 1013.3
20260505130153 51 319 0.0 0.0 0.00 0.00 0.00 99 1013.3
20260505124643 51 318 0.0 0.0 0.00 0.00 0.00 99 1013.1
20260505124139 51 318 0.0 0.0 0.00 0.00 0.00 99 1013.2
20260505123635 51 318 0.0 0.0 0.00 0.00 0.00 99 1013.2
20260505123133 51 318 0.0 0.0 0.00 0.00 0.00 99 1013.1
20260505122629 51 318 0.0 0.0 0.00 0.00 0.00 99 1013.0
20260505122126 51 318 0.0 0.0 0.00 0.00 0.00 99 1013.2
20260505121622 51 318 0.0 0.0 0.00 0.00 0.00 99 1013.1
20260505121119 51 318 0.0 0.0 0.00 0.00 0.00 99 1013.0
20260505120616 51 318 0.0 0.0 0.00 0.00 0.00 99 1013.0
20260505120112 51 318 0.0 0.0 0.00 0.00 0.00 99 1012.9
20260505115606 51 318 0.0 0.0 0.00 0.00 0.00 99 1013.0
20260505115104 51 318 0.0 0.0 0.00 0.00 0.00 99 1012.9
20260505114601 51 318 0.0 0.0 0.00 0.00 0.00 99 1013.0
20260505114057 51 318 0.0 0.0 0.00 0.00 0.00 99 1013.0
20260505113553 51 318 0.0 0.0 0.00 0.00 0.00 99 1013.1
20260505113049 51 318 0.0 0.0 0.00 0.00 0.00 99 1012.9
20260505112540 51 318 0.0 0.0 0.00 0.00 0.00 99 1013.0
20260505112038 51 318 0.0 0.9 0.00 0.00 0.00 99 1012.9
20260505111532 51 318 0.0 0.0 0.00 0.00 0.00 99 1013.0
20260505111028 51 318 0.0 0.0 0.00 0.00 0.00 99 1012.8
20260505110519 51 318 0.0 0.0 0.00 0.00 0.00 99 1012.9
20260505101951 52 318 0.0 0.0 0.00 0.00 0.00 98 1012.8
20260505101449 52 318 0.0 0.0 0.00 0.00 0.00 98 1012.9
20260505100946 52 319 0.0 0.0 0.00 0.00 0.00 98 1012.7
20260505100443 52 319 0.0 0.9 0.00 0.00 0.00 98 1012.8
20260505095939 52 319 0.0 0.0 0.00 0.00 0.00 97 1012.8
20260505095436 52 319 0.9 0.9 0.00 0.00 0.00 97 1012.7
20260505094932 52 319 0.0 0.9 0.00 0.00 0.00 97 1012.7
20260505094429 53 321 0.0 0.0 0.00 0.00 0.00 96 1012.6
20260505093925 53 321 0.0 0.0 0.00 0.00 0.00 95 1012.5
20260505093422 53 353 0.0 0.9 0.00 0.00 0.00 94 1012.3
20260505092920 53 9 0.9 0.9 0.00 0.00 0.00 94 1012.3
20260505092417 53 0 0.9 0.9 0.00 0.00 0.00 93 1012.3
20260505091915 53 311 0.9 1.7 0.00 0.00 0.00 92 1012.3
20260505091412 53 316 0.0 0.9 0.00 0.00 0.00 92 1012.5
20260505090910 54 298 0.0 0.9 0.00 0.00 0.00 91 1012.3
20260505090408 54 340 0.0 0.0 0.00 0.00 0.00 91 1012.6
20260505085905 54 334 0.0 0.0 0.00 0.00 0.00 91 1012.3
20260505085403 54 306 0.9 0.9 0.00 0.00 0.00 91 1012.2
20260505084901 54 335 0.0 0.9 0.00 0.00 0.00 91 1012.4
20260505084359 54 353 0.0 0.0 0.00 0.00 0.00 91 1012.1
20260505083856 54 28 0.0 0.0 0.00 0.00 0.00 91 1012.3
20260505083354 54 304 0.9 0.9 0.00 0.00 0.00 90 1012.4
20260505082850 54 301 0.0 0.9 0.00 0.00 0.00 91 1012.4
20260505082346 54 302 0.0 0.9 0.00 0.00 0.00 90 1012.3
20260505081843 55 20 0.9 0.9 0.00 0.00 0.00 91 1012.0
20260505081339 55 303 0.9 0.9 0.00 0.00 0.00 90 1012.1
20260505080836 55 299 0.9 1.7 0.00 0.00 0.00 90 1012.1
20260505080332 55 316 0.0 0.0 0.00 0.00 0.00 90 1011.9
20260505075827 55 300 0.0 0.9 0.00 0.00 0.00 90 1012.2
20260505075325 55 296 1.7 1.7 0.00 0.00 0.00 90 1012.2
20260505074822 55 326 0.9 0.9 0.00 0.00 0.00 90 1012.1
20260505074319 56 329 0.0 0.9 0.00 0.00 0.00 89 1012.1
20260505073817 56 326 0.0 0.9 0.00 0.00 0.00 90 1012.0
20260505073314 56 326 0.0 0.0 0.00 0.00 0.00 90 1012.0
20260505072811 56 322 0.0 0.9 0.00 0.00 0.00 89 1011.9
20260505072307 56 335 0.0 0.0 0.00 0.00 0.00 89 1011.9
20260505071803 56 301 0.9 0.9 0.00 0.00 0.00 89 1011.7
20260505071300 56 303 0.0 0.0 0.00 0.00 0.00 88 1011.8
20260505070758 56 302 0.9 0.9 0.00 0.00 0.00 89 1011.7
20260505070254 57 311 0.9 0.9 0.00 0.00 0.00 89 1011.8
20260505065749 57 323 0.0 0.9 0.00 0.00 0.00 88 1012.0
20260505065246 57 314 0.0 0.0 0.00 0.00 0.00 88 1011.8
20260505064743 57 303 0.0 0.0 0.00 0.00 0.00 88 1011.7
20260505064241 57 304 0.0 0.0 0.00 0.00 0.00 88 1011.8
20260505063738 57 305 0.0 0.0 0.00 0.00 0.00 88 1011.6
20260505063234 57 306 0.0 0.9 0.00 0.00 0.00 88 1011.7
20260505062731 58 308 0.0 0.9 0.00 0.00 0.00 88 1011.6
20260505062229 58 303 0.0 0.0 0.00 0.00 0.00 88 1011.7
20260505061725 58 304 0.0 0.0 0.00 0.00 0.00 88 1011.6
20260505061224 58 304 0.0 0.0 0.00 0.00 0.00 88 1011.7
20260505060720 58 304 0.9 1.7 0.00 0.00 0.00 87 1011.4
20260505060217 58 305 0.9 0.9 0.00 0.00 0.00 87 1011.6
20260505055713 59 323 0.0 0.0 0.00 0.00 0.00 87 1011.8
20260505055209 59 326 0.9 0.9 0.00 0.00 0.00 87 1011.7
20260505054707 59 315 0.0 0.9 0.00 0.00 0.00 87 1011.4
20260505054205 59 336 0.0 0.0 0.00 0.00 0.00 86 1011.6
20260505053703 59 336 0.0 0.9 0.00 0.00 0.00 86 1011.4
20260505053158 59 292 0.0 0.9 0.00 0.00 0.00 86 1011.4
20260505052655 60 309 0.9 0.9 0.00 0.00 0.00 86 1011.3
20260505052147 60 300 0.0 0.0 0.00 0.00 0.00 87 1011.3
20260505051644 60 300 0.9 0.9 0.00 0.00 0.00 86 1011.6
20260505051142 59 303 0.0 0.9 0.00 0.00 0.00 87 1011.4
20260505050639 60 304 0.0 0.0 0.00 0.00 0.00 88 1011.4
20260505050138 60 304 0.0 0.0 0.00 0.00 0.00 87 1011.1
20260505041607 61 314 0.9 0.9 0.00 0.00 0.00 88 1010.8
20260505041105 60 351 0.0 0.0 0.00 0.00 0.00 88 1010.7
20260505040602 61 341 0.0 0.0 0.00 0.00 0.00 88 1010.5
20260505040059 60 318 0.0 0.0 0.00 0.00 0.00 89 1010.3
20260505035555 60 299 0.0 0.0 0.00 0.00 0.00 90 1010.3
20260505035052 60 299 0.0 0.0 0.00 0.00 0.00 90 1010.4
20260505034548 60 299 0.0 0.0 0.00 0.00 0.00 90 1010.5
20260505034045 60 299 0.0 0.0 0.00 0.00 0.00 90 1010.1
20260505033542 60 299 0.0 0.0 0.00 0.00 0.00 89 1010.3
20260505033040 60 299 0.0 0.0 0.00 0.00 0.00 89 1009.9
20260505032538 61 299 0.0 0.0 0.00 0.00 0.00 88 1010.0
20260505032034 61 299 0.0 0.0 0.00 0.00 0.00 87 1009.9
20260505031531 62 299 0.0 0.0 0.00 0.00 0.00 86 1009.7
20260505031027 62 299 0.0 0.0 0.00 0.00 0.00 86 1009.8
20260505030525 62 300 0.0 0.0 0.00 0.00 0.00 85 1009.6
20260505030021 63 300 0.0 0.0 0.00 0.00 0.00 84 1009.5
20260505025517 63 300 0.0 0.0 0.00 0.00 0.00 83 1009.5